This is the latest recevied weather packets stored in our database for station/object N1ICS-1. If no packets are shown the sender has not sent any weather packets the latest 10 day(s).
| Time | Temp. | Humidity | Pressure | Rain* | Wind** | Luminosity | Snow |
|---|---|---|---|---|---|---|---|
| 1777851601 | 10° C | 77% | 1013.2 hPa | 0 mm | - | 31 W/m² | - |
| 1777851302 | 10° C | 78% | 1013.4 hPa | 0 mm | - | 39 W/m² | - |
| 1777851002 | 10° C | 77% | 1013.4 hPa | 0 mm | - | 33 W/m² | - |
| 1777850702 | 10° C | 77% | 1013.5 hPa | 0 mm | - | 29 W/m² | - |
| 1777850401 | 10° C | 77% | 1013.3 hPa | 0 mm | - | 26 W/m² | - |
| 1777850102 | 10° C | 77% | 1013.5 hPa | 0 mm | - | 31 W/m² | - |
| 1777849802 | 10° C | 77% | 1013.7 hPa | 0 mm | - | 31 W/m² | - |
| 1777849502 | 10° C | 76% | 1013.6 hPa | 0 mm | - | 30 W/m² | - |
| 1777849202 | 10° C | 77% | 1013.8 hPa | 0 mm | - | 29 W/m² | - |
| 1777848902 | 10° C | 77% | 1013.8 hPa | 0 mm | - | 29 W/m² | - |
| 1777848602 | 10° C | 78% | 1014 hPa | 0 mm | - | 28 W/m² | - |
| 1777848301 | 10° C | 76% | 1013.8 hPa | 0 mm | - | 29 W/m² | - |
| 1777848002 | 10° C | 76% | 1014 hPa | 0 mm | - | 32 W/m² | - |
| 1777847702 | 10° C | 78% | 1014.2 hPa | 0 mm | - | 32 W/m² | - |
| 1777847401 | 10° C | 77% | 1014.1 hPa | 0 mm | - | 37 W/m² | - |
| 1777847102 | 10° C | 76% | 1014.4 hPa | 0 mm | - | 60 W/m² | - |
| 1777846801 | 10° C | 78% | 1014.4 hPa | 0 mm | - | 73 W/m² | - |
| 1777846502 | 10.56° C | 76% | 1014.5 hPa | 0 mm | - | 92 W/m² | - |
| 1777846202 | 10.56° C | 76% | 1014.6 hPa | 0 mm | - | 113 W/m² | - |
| 1777845902 | 10.56° C | 76% | 1014.7 hPa | 0 mm | - | 119 W/m² | - |
| 1777845602 | 10.56° C | 75% | 1014.5 hPa | 0 mm | - | 114 W/m² | - |
| 1777845302 | 10.56° C | 77% | 1014.7 hPa | 0 mm | - | 165 W/m² | - |
| 1777845002 | 11.11° C | 75% | 1014.8 hPa | 0 mm | - | 136 W/m² | - |
| 1777844701 | 11.11° C | 73% | 1014.9 hPa | 0 mm | - | 189 W/m² | - |
| 1777844402 | 11.11° C | 75% | 1014.8 hPa | 0 mm | - | 192 W/m² | - |
* Rain latest hour (hover to see other rain measurements)
** Current wind speed in m/s (hover to see current wind gust speed)